CZ-4 DEB, 26158

Orbit data source: Space-Track

CZ-4 DEB, 26158 is space debris in SSO originally from a launch on Thu, 14 Oct 1999 UTC launched from the Taiyaun Space Center, China (TSC). Debris objects in space refer to the collection of defunct objects orbiting the Earth. Examples of debris include non-operational satellites, rocket bodies, and fragments generated from explosions, collisions, or faulty payload assembly.

Loading next visibility...
Identifier
26158, 1999-057AU
Orbit
SSO
Country
Flag of CNCN / PRC
Related business
Manufacturer
Unknown
Mission
Spacecraft
Bus & Motor
Unknown
Mass
Unknown
Launch date (UTC)
1999-10-14 (26 years ago)
Launch vehicle
Unknown
Launch site
Taiyaun Space Center, China (TSC)
Object type
Payload
Rocket body
Debris
Shape & HBR
Unknown shape, 0.2 m
Radar Cross Section
Medium (>0.1 m² and <1 m²)

Expand to show TLE details & history
Last TLE update: 18 hours ago

TLE from 18 hours ago
0 CZ-4 DEB
1 26158U 99057AU  25350.12793135  .00001462  00000-0  50156-3 0  9991
2 26158  98.9753  48.7706 0178537 172.0155 244.3616 14.29170054327594
Epoch: 2025-12-16T03:04Z
TLE epoch observation values (Epoch: 2025-12-16T03:04:13.268Z)
Latitude
53.67726°
Longitude
-94.64077°
Altitude
860.531 km
Speed
7.398 km/s
True Right ascension
02h 25m 43s
True Declination
53° 30' 55"
Sunlit
Object was in full shadow at epoch
Visualization orbit readout
Latitude
Unknown
Longitude
Unknown
Altitude
Unknown
Speed
Unknown
Apparent Right ascension
Unknown
Apparent Declination
Unknown
Sunlit
N/A
Visualization observer readout
Local Sidereal Time
19:42:39
Azimuth
Unknown
Elevation
Unknown
Doppler factor
Unknown
Orbital elements
Apogee altitude
919.672 km
Perigee altitude
663.657 km
Semi-major axis
7,169.801 km
Eccentricity
0.01785
Inclination
98.9753°
RAAN
48.7706°
Arg. of periapsis
172.0155°
True anomaly
242.5351°
Mean anomaly
244.3616°
Eccentric anomaly
243.44656°
Mean motion
3.57505 °/min
Orbital period
100.7 mins
BSTAR
0.00050156
Loading maneuver chart data...
Computing Atmospheric mass density...
Loading historical data...
Loading historical data...
Loading historical data...
Loading historical data...
Loading historical data...
Loading historical data...
Loading historical data...

Documentation

Showing up to 5 results
|